Location: Newark
(40.4455°N, 118.4031°W)
Time: 11:11:00
(UTC+00:00)

N. Korean satellite - Visible Passes

Search period start: 18 November 2019 00:00
Search period end: 28 November 2019 00:00
Orbit: 456 x 506 km, 97.2° (Epoch: 17 November)

Date Brightness Start Highest point End Pass type
(mag) Time Alt. Az. Time Alt. Az. Time Alt. Az.
18 Nov 8.4 01:27:31 10° SSW 01:30:53 37° W 01:34:19 10° NNW visible
18 Nov 9.7 12:54:56 10° NE 12:57:29 17° E 13:00:00 10° SE visible
19 Nov 6.7 01:01:51 10° S 01:05:28 84° W 01:09:10 10° NNW visible
19 Nov 6.6 14:01:58 10° N 14:05:37 59° WNW 14:09:12 10° SSW visible
20 Nov 10.3 02:12:40 10° WSW 02:13:46 11° W 02:14:52 10° WNW visible
20 Nov 7.2 13:36:35 10° NNE 13:40:15 61° E 13:43:52 10° S visible
21 Nov 9.4 01:45:16 10° SSW 01:48:11 22° W 01:51:09 10° NW visible
21 Nov 8.8 13:11:35 10° NE 13:14:48 28° E 13:17:58 10° SSE visible
22 Nov 7.8 01:19:10 10° S 01:22:41 47° W 01:26:17 10° NNW visible
22 Nov 10.0 12:47:16 10° ENE 12:49:14 14° E 12:51:11 10° SE visible
23 Nov 6.5 13:53:46 10° N 13:57:27 76° WNW 14:01:03 10° SSW visible
24 Nov 10.0 02:03:29 10° SW 02:05:29 14° W 02:07:31 10° WNW visible
24 Nov 7.7 13:28:29 10° NNE 13:32:02 47° E 13:35:32 10° S visible
25 Nov 8.9 01:36:44 10° SSW 01:39:56 28° W 01:43:11 10° NW visible
25 Nov 9.2 13:03:37 10° NE 13:06:32 22° E 13:09:25 10° SSE visible
26 Nov 7.2 01:10:50 10° S 01:14:28 62° W 01:18:09 10° NNW visible
26 Nov 10.2 12:39:57 10° ENE 12:40:56 11° E 12:41:54 10° ESE visible
26 Nov 6.9 14:11:05 10° N 14:14:34 43° WNW 14:17:59 10° SW visible
27 Nov 6.6 13:45:33 10° NNE 13:49:13 83° ESE 13:52:48 10° S visible
